Lid_Strength_Index
2 2 2 1 1 1 2 2 3 6 5 3 3 0 -0 0 -0 -1 -0 -1 -1 -0 0 0 0 -0 -1 -1 -1 -1 -1 -1 -1 -1 -1 -1 -1 -2
1 2 1 2 2 1 2 2 3 3 5 3 2 1 0 -0 -0 -1 -0 -1 -0 -0 -0 0 0 -0 -0 -0 -0 -0 -1 -0 -0 -0 -0 -0 -1 -1
2 2 2 2 2 2 2 2 2 2 4 3 1 0 1 1 -0 -0 -1 -0 -1 0 0 0 1 0 0 0 0 0 -0 -0 0 -0 -0 -0 -0 -0
2 2 2 2 3 3 3 3 2 2 2 4 2 2 1 1 1 0 -0 -1 -0 -0 1 1 1 1 1 1 1 1 1 1 1 1 0 -0 -0 -0
2 2 2 2 2 2 2 2 2 2 3 2 3 2 1 2 2 2 1 0 -0 -0 1 2 2 2 2 2 2 3 4 3 3 2 1 1 0 0
2 2 2 2 1 2 2 2 2 3 3 2 3 3 2 2 2 2 3 1 1 -0 -0 1 1 1 1 3 3 3 4 5 5 4 4 3 2 1
2 2 2 1 1 2 2 2 3 3 3 3 3 4 4 4 4 3 3 3 3 1 1 1 1 1 1 2 2 2 4 5 5 5 5 5 5 4
2 2 2 1 2 3 3 2 2 3 3 3 4 4 4 4 3 3 3 4 4 2 2 2 1 1 0 1 2 3 4 4 5 5 6 6 6 5
2 2 2 1 2 1 3 3 3 3 2 2 3 4 4 4 4 3 3 3 3 3 2 3 2 1 0 0 3 3 4 4 5 5 6 6 6 6
1 2 2 2 1 1 2 3 2 2 2 2 2 2 2 3 2 2 2 3 3 2 2 3 2 2 1 1 2 3 3 5 6 6 6 7 8 8
1 1 1 2 3 5 2 2 2 2 3 4 4 4 4 4 3 2 3 3 3 4 2 2 2 3 2 1 1 3 4 5 6 6 6 7 8 9
1 1 4 2 5 6 2 2 3 2 2 1 2 4 4 3 4 2 2 3 4 5 3 2 3 3 4 3 2 1 1 4 6 7 6 7 8 6
2 3 2 6 7 9 7 2 3 3 3 3 2 2 2 2 3 3 1 2 3 4 2 2 3 3 3 4 3 2 2 2 1 2 6 8 9 7
3 3 3 7 8 9 8 6 7 6 3 3 3 3 3 3 2 2 2 2 1 1 2 2 2 3 4 4 4 3 3 2 2 1 2 4 7 8
3 4 8 10 10 8 8 8 8 5 4 4 4 4 3 2 2 2 2 2 2 2 1 2 1 2 3 3 4 3 4 3 2 2 2 2 1 2
5 5 6 5 6 5 5 6 4 4 4 4 3 3 3 3 3 3 3 3 3 3 2 1 1 1 2 2 3 2 2 3 3 3 2 1 1 1
4 3 3 3 3 3 3 3 3 2 2 2 2 2 3 3 3 3 3 4 4 4 3 2 1 1 1 2 2 2 2 2 1 2 3 2 2 1
3 3 3 3 3 3 3 4 3 2 2 2 3 3 4 4 4 4 3 4 4 4 3 3 3 3 2 2 1 3 3 3 2 2 2 2 2 1
4 4 4 4 4 4 4 4 4 3 1 2 2 3 4 3 3 4 4 3 4 4 4 3 3 3 4 5 2 4 3 2 2 2 2 3 2 1
4 4 4 4 5 5 4 5 4 4 4 4 4 5 5 5 5 5 5 5 4 4 3 3 3 4 3 4 3 2 4 2 2 2 2 1 1 1
5 5 5 5 5 5 6 7 8 10 9 8 8 8 8 7 6 6 5 6 6 5 5 6 4 2 1 2 3 3 2 4 3 2 1 2 3 3
5 7 8 8 8 8 9 10 12 13 13 13 13 13 11 9 9 8 6 7 7 7 8 7 6 4 4 4 5 5 4 3 3 3 3 3 3 4
8 10 11 12 12 12 12 12 13 14 14 14 14 14 12 11 10 9 8 8 9 9 9 9 8 6 6 6 6 7 7 6 5 6 6 3 3 3